Theta_e
275 277 277 276 277 276 268 271 266 269 270 273 275 276 278 279 280 280 280 282 285 286 287 286 287 288 289 289 289 290 288 287 287 288 288 289 289 289 289 290 291 292 293 294
274 277 276 276 277 276 276 274 272 272 272 274 277 278 278 278 279 279 280 282 285 286 287 287 288 288 289 288 289 290 287 287 287 288 288 287 288 288 288 289 289 290 291 293
273 275 276 274 276 276 275 274 273 270 273 276 277 279 278 278 279 279 280 282 285 286 287 287 288 288 288 288 289 289 287 287 287 288 287 287 287 287 286 286 288 288 289 292
270 273 271 275 277 277 276 276 276 277 277 278 278 280 279 279 279 279 280 284 285 287 287 288 289 289 290 289 289 289 287 287 287 287 287 287 287 286 286 287 286 287 287 289
271 271 276 274 276 275 274 273 278 276 278 279 279 277 274 280 281 280 281 286 286 288 288 288 289 289 290 288 288 288 287 287 287 287 287 287 287 286 287 287 287 286 286 286
266 269 273 276 277 279 277 271 278 279 277 278 277 270 273 280 281 281 284 287 287 288 288 288 289 290 289 288 288 287 287 287 287 287 287 287 287 287 287 288 287 287 286 286
271 267 275 278 279 280 270 272 278 279 279 277 275 276 279 281 280 281 285 287 288 288 287 288 290 290 288 288 287 289 288 288 287 287 286 287 287 288 288 289 288 287 286 286
268 267 275 279 278 275 276 278 280 280 280 278 279 279 280 280 280 281 286 286 287 287 287 289 290 289 288 287 289 290 288 287 287 286 286 287 288 289 288 288 288 288 287 287
278 278 278 280 278 280 280 279 280 280 280 279 278 278 278 278 279 281 286 286 287 287 287 288 289 289 288 289 290 290 287 286 286 286 286 286 287 290 289 287 286 287 287 287
278 276 277 280 280 281 281 281 283 281 281 280 277 277 278 278 279 283 286 286 286 286 286 287 289 289 289 290 291 290 287 286 286 285 285 284 286 290 290 289 287 286 287 287
276 275 278 279 280 282 283 283 282 282 282 280 278 278 278 278 279 285 286 286 286 286 286 287 289 289 290 290 291 289 287 286 285 285 284 284 284 286 290 292 292 289 286 288
280 279 279 278 281 283 282 281 282 282 280 279 278 278 279 279 280 286 286 286 286 286 286 287 288 289 290 291 291 289 286 286 285 284 284 284 283 283 290 292 294 294 294 291
281 281 280 281 283 284 282 282 282 282 281 279 279 279 279 279 281 287 286 286 285 286 287 288 288 289 290 291 291 290 287 287 284 285 284 283 282 282 282 285 290 292 293 293
282 283 280 281 281 284 283 283 286 282 281 280 279 279 279 280 281 285 285 286 287 287 287 288 288 289 291 291 291 290 288 291 284 283 283 282 282 282 282 282 282 283 288 291
282 280 282 283 284 282 282 282 281 280 280 279 279 279 279 280 281 284 287 287 287 286 287 287 287 288 291 291 291 290 288 287 284 283 284 285 283 282 282 282 283 283 284 286
280 281 282 283 282 281 281 280 280 280 279 279 278 278 279 280 281 284 287 287 285 284 286 286 287 289 291 290 291 289 288 290 288 284 283 283 282 282 282 282 281 282 283 283
280 279 281 281 281 280 280 280 281 281 280 278 278 279 279 280 281 282 286 287 286 286 287 286 286 290 291 291 290 288 287 286 289 284 283 283 282 282 282 281 281 281 281 287
284 284 285 284 282 281 280 281 282 281 279 279 279 279 279 280 279 281 285 286 286 286 286 287 288 290 290 291 290 288 286 285 285 284 284 284 282 282 282 282 282 281 282 284
284 284 283 283 283 282 281 281 282 281 280 279 279 278 279 280 280 281 285 286 284 284 285 287 290 289 290 292 291 287 285 285 284 283 283 285 282 282 282 282 282 282 282 282
283 284 283 282 283 283 282 282 282 280 280 280 279 278 278 280 281 281 284 285 285 285 287 287 288 288 291 292 291 286 285 285 283 283 284 282 282 282 282 284 283 282 282 282
283 283 282 282 282 283 283 283 282 280 279 280 279 279 279 279 281 281 280 284 285 288 287 287 287 289 292 291 288 285 285 284 283 282 282 281 282 282 282 282 282 282 282 282
284 283 282 282 282 282 282 283 281 280 280 280 280 280 279 279 280 280 281 285 286 289 286 286 287 291 291 291 287 285 284 284 283 283 282 282 282 282 282 282 282 282 282 282
284 283 283 283 283 283 282 282 281 280 280 280 280 280 279 280 279 279 275 284 287 287 286 286 289 290 291 289 288 285 283 283 283 283 282 282 282 282 282 282 282 283 282 282
284 283 283 283 283 283 281 282 281 280 280 281 281 281 280 280 280 281 281 285 287 287 286 287 288 289 289 288 289 286 285 284 283 283 283 286 282 283 282 282 282 282 283 283
284 283 282 282 282 282 283 282 281 280 279 279 280 281 281 281 281 281 282 282 287 286 285 286 288 288 286 287 288 288 286 285 286 284 282 282 283 283 283 282 283 283 283 283
283 283 283 283 284 283 283 283 281 280 280 279 279 280 281 281 282 281 281 284 285 285 284 284 285 285 285 286 287 287 287 286 286 286 285 283 282 282 283 283 283 283 283 283
283 285 282 281 282 283 283 283 281 280 281 280 280 281 281 281 282 282 283 281 285 285 284 284 284 285 286 286 286 287 287 287 287 286 286 285 283 283 283 283 283 283 283 283
Wind_Speed
1 2 1 2 4 6 5 4 6 4 6 7 7 10 9 9 15 17 18 18 17 19 16 19 17 18 17 17 16 16 15 15 15 14 15 15 15 15 15 17 17 18 17 15
1 1 2 4 5 6 5 3 7 6 8 2 6 7 8 10 15 15 16 18 17 18 17 17 17 17 18 17 16 15 14 14 14 14 14 14 15 15 15 17 17 17 19 16
2 2 4 6 6 5 3 3 4 4 5 5 8 11 9 9 13 14 16 16 17 17 16 15 16 16 17 16 15 14 13 13 14 13 14 14 14 14 14 14 16 17 18 19
2 2 3 1 2 2 4 4 5 2 4 5 6 8 7 5 9 12 14 14 15 13 14 14 14 15 15 14 14 13 13 13 13 13 13 13 14 15 14 12 14 14 16 19
4 3 6 2 4 5 4 4 5 3 5 5 7 6 3 4 9 9 12 10 12 13 13 13 14 15 14 14 13 13 13 13 13 13 12 13 14 13 13 11 13 13 13 17
3 3 4 2 4 4 5 4 6 3 2 4 7 6 5 10 12 10 12 11 12 13 11 12 14 15 13 14 13 13 13 12 11 11 12 13 11 11 11 9 8 10 15 15
2 3 8 4 6 6 5 7 6 5 4 2 1 5 8 10 9 7 9 13 13 12 10 12 13 14 13 13 14 13 12 11 10 10 10 12 11 9 11 11 13 12 9 11
4 3 6 7 4 7 5 4 6 5 4 2 4 6 6 8 8 9 12 13 13 12 11 11 13 13 13 14 13 12 11 10 10 10 8 9 12 8 11 11 13 14 15 11
9 7 0 7 0 4 6 6 6 5 4 2 2 3 6 7 7 8 11 11 11 11 11 10 12 13 13 15 14 13 12 11 9 9 8 9 11 13 10 10 9 11 10 10
3 2 4 6 3 5 5 6 6 5 4 2 1 4 5 6 6 7 9 10 12 11 12 11 12 13 12 12 14 12 11 11 9 7 8 8 7 9 9 10 8 9 9 10
4 1 4 3 5 8 7 7 6 5 3 3 2 4 4 5 6 7 8 9 10 9 10 11 11 13 13 12 15 12 11 9 9 6 6 6 6 6 9 11 13 8 7 9
8 11 6 7 11 9 8 7 7 6 4 2 2 3 4 5 5 6 8 9 9 10 10 11 11 12 13 13 15 12 9 8 7 6 6 5 5 6 12 16 20 21 21 14
6 8 2 11 13 8 9 8 6 6 5 4 2 2 3 3 5 8 8 8 9 9 10 10 10 10 12 12 14 13 9 8 6 7 5 5 5 6 7 8 13 17 20 21
12 15 8 5 8 9 9 8 10 6 4 3 3 3 3 3 5 5 7 7 8 9 10 10 10 10 12 11 14 13 10 14 5 5 4 4 5 5 4 6 7 7 9 15
11 2 9 10 12 9 7 8 7 6 3 3 3 2 3 4 5 5 7 7 9 8 9 10 10 10 11 10 13 12 8 6 5 5 4 5 4 5 4 6 6 6 6 9
6 9 13 14 14 11 10 8 7 6 4 3 4 3 2 3 5 6 5 6 8 8 9 10 10 10 10 9 12 8 7 14 9 4 4 4 4 5 5 5 5 5 6 6
17 10 11 14 15 11 9 7 7 7 6 5 3 1 2 3 4 6 6 6 8 8 7 8 11 10 10 9 8 5 5 5 10 5 5 4 4 4 4 4 4 5 5 8
9 10 16 21 19 13 10 8 8 8 5 6 5 3 2 4 4 5 7 6 7 7 9 9 11 12 10 9 6 5 4 5 4 4 4 5 4 4 4 4 5 5 4 6
13 16 13 15 14 13 11 10 8 7 7 6 6 4 3 2 2 4 6 5 8 8 9 10 17 13 10 11 8 4 4 5 5 4 4 6 5 4 4 4 4 5 5 5
13 15 16 15 12 13 11 8 8 7 6 6 6 4 3 3 4 4 6 6 6 6 9 10 11 9 9 8 11 3 4 5 5 5 4 4 4 5 4 6 5 4 5 5
17 16 18 17 13 11 11 10 10 8 7 7 6 5 4 1 2 3 4 5 7 8 8 14 10 7 5 8 8 5 4 4 4 4 4 4 4 4 4 4 4 4 4 4
17 17 17 16 14 12 10 9 8 7 7 7 6 5 4 3 3 4 2 5 4 12 6 6 7 13 8 11 5 5 5 4 3 4 4 4 4 4 4 4 4 4 4 4
16 17 16 16 16 13 10 9 8 9 8 7 6 5 3 2 2 2 3 5 5 10 5 5 13 16 14 6 5 5 6 6 4 3 4 3 4 4 4 4 4 4 4 4
16 16 16 13 13 13 13 9 8 7 7 6 6 6 5 3 1 1 1 6 11 10 7 9 12 15 13 7 6 4 6 7 6 4 3 6 3 3 4 4 4 4 4 5
17 16 15 16 16 11 12 10 8 7 7 6 6 5 4 2 3 1 3 3 10 7 5 11 15 15 6 6 6 5 4 6 6 6 6 3 4 4 4 4 4 4 4 4
17 13 12 15 12 10 9 9 8 6 6 5 3 3 3 2 3 3 3 5 5 7 4 5 5 6 6 6 6 7 6 6 8 5 7 7 5 4 4 4 4 4 4 4
13 17 11 8 7 9 10 10 9 8 7 7 5 4 4 4 4 4 5 3 3 3 3 4 5 7 6 6 6 6 6 6 7 7 6 5 6 6 4 4 4 4 4 4
Wind_Direction
72 118 190 225 197 179 161 185 153 248 256 288 310 312 309 309 335 343 345 343 348 346 345 353 347 350 342 338 338 347 347 351 352 348 349 350 354 352 352 357 0 356 358 357
312 284 281 281 247 201 210 193 260 274 290 226 298 305 329 336 336 337 339 342 347 344 342 345 345 345 339 336 338 346 348 349 349 352 352 355 351 354 355 353 358 0 355 2
243 318 319 307 227 188 176 184 189 242 242 331 321 326 330 323 331 332 336 343 345 341 339 343 341 342 337 333 337 344 348 348 352 353 356 353 350 355 356 356 356 3 2 3
173 9 354 211 69 135 195 210 203 263 288 288 286 288 284 286 320 328 336 344 342 334 336 341 338 337 333 334 340 344 346 348 352 352 354 352 355 357 355 357 0 1 4 5
125 195 293 150 200 165 165 257 195 230 304 305 312 319 320 301 339 330 331 347 338 330 337 342 339 336 337 344 343 346 346 346 349 347 348 355 354 353 355 355 7 9 10 9
74 122 209 185 175 119 107 285 180 183 263 313 345 14 275 328 331 323 330 350 342 336 339 347 339 337 338 343 347 347 341 337 336 341 347 351 342 353 349 351 3 13 15 14
157 220 284 194 153 143 78 248 166 166 200 220 264 210 275 310 311 322 332 349 345 341 345 344 340 338 342 341 344 338 332 330 336 341 341 347 340 350 352 16 21 24 21 20
84 54 310 146 92 170 191 135 154 164 194 229 253 286 299 300 311 334 351 352 351 341 342 346 344 340 340 335 332 337 332 332 340 343 349 349 347 7 9 3 20 24 27 28
176 211 80 190 182 141 150 146 170 157 188 200 301 310 314 309 323 335 353 353 347 343 338 350 347 341 341 327 340 339 335 335 343 345 355 352 352 23 26 15 12 17 17 19
62 192 188 174 98 145 154 143 150 160 158 128 316 339 318 315 328 345 357 357 346 343 344 346 349 342 335 335 342 340 336 333 339 350 4 351 353 356 18 29 24 17 14 15
255 130 77 217 195 161 148 139 137 146 130 120 54 355 309 319 341 347 357 355 350 342 341 341 346 343 337 343 349 342 337 334 340 349 350 353 358 1 10 23 34 30 29 9
217 178 162 192 169 156 145 161 158 147 131 118 80 8 324 337 330 350 0 356 351 345 345 340 346 347 340 341 347 343 337 339 343 346 350 356 3 354 7 24 27 39 40 45
176 136 103 138 144 148 143 155 150 139 139 135 54 42 345 326 322 356 8 360 349 343 333 338 346 349 341 341 347 346 338 331 337 354 353 359 358 13 1 348 25 26 36 39
122 113 63 166 170 159 136 150 141 132 139 124 101 44 357 338 329 347 14 359 345 347 339 341 344 350 342 343 349 346 339 347 341 336 345 356 5 5 360 3 0 1 6 25
164 90 146 126 131 137 125 131 137 144 159 112 86 60 22 7 342 347 11 2 349 345 343 343 340 345 340 342 347 341 340 331 344 341 345 15 8 4 9 10 6 356 358 12
134 121 130 142 149 144 143 148 145 159 166 128 97 53 343 356 359 330 13 8 355 346 343 342 336 332 333 336 348 339 340 347 4 349 346 1 4 14 7 15 5 0 7 9
125 137 142 151 159 159 167 159 158 159 148 141 130 133 42 15 7 338 359 21 360 344 343 340 330 329 331 332 336 340 337 334 356 358 357 360 1 17 0 10 12 5 358 13
147 145 166 156 158 156 154 156 154 151 154 154 144 128 95 45 14 342 337 19 359 343 355 347 336 343 330 332 352 347 345 339 344 350 348 352 6 5 16 7 12 9 352 0
142 143 144 148 155 151 151 154 157 149 145 149 142 143 151 88 19 339 337 22 3 346 349 341 344 343 331 344 4 357 352 358 350 344 356 3 356 3 10 17 3 7 359 1
139 143 141 141 142 151 152 150 144 144 154 147 137 125 96 43 22 356 337 28 8 337 343 336 340 330 331 339 357 1 14 4 6 346 344 2 357 350 1 13 20 0 1 359
149 149 147 149 152 152 155 152 149 154 162 149 149 154 147 116 21 346 6 9 360 359 356 340 334 330 337 2 355 334 27 24 11 8 347 340 345 349 345 355 356 12 354 354
153 154 154 151 152 153 155 154 148 144 150 148 150 139 142 109 52 9 349 357 337 357 1 340 323 353 1 13 353 341 336 29 37 4 13 348 339 341 341 337 347 344 355 351
155 154 151 154 158 158 148 154 157 154 157 157 154 154 161 140 120 37 339 323 1 4 359 330 356 360 8 350 5 358 346 343 6 33 356 5 341 329 327 330 328 334 336 344
152 152 153 148 139 145 160 172 159 159 159 153 151 163 158 142 98 82 315 353 12 19 2 349 5 10 10 348 345 11 4 355 336 343 17 5 2 343 331 326 328 326 324 334
154 151 145 150 157 166 161 157 144 146 147 145 146 149 153 150 123 88 43 11 24 18 358 358 3 9 355 348 349 346 352 357 359 344 335 8 350 347 344 330 320 314 316 318
154 157 161 166 164 155 153 153 159 160 147 145 158 155 147 138 124 114 75 47 37 19 352 354 353 354 344 350 357 356 346 341 352 350 352 333 342 350 335 337 329 321 313 307
149 150 151 145 152 155 157 161 156 169 165 156 150 169 164 148 145 122 95 66 46 25 0 357 357 354 346 355 348 347 348 344 341 343 338 343 333 323 326 320 315 312 309 303